SCP
0 0 0 0 0 0 0 0 0 0 0 0 0 0 0 0 0 0 0 0 0 0 0 0 0 0 0 0 0 0 0 0 0 0 0 0 0 0 0 0 0 0 0 0 0 0 0 0 0 0 0 0 0 0
0 0 0 0 0 0 0 0 0 0 0 0 0 0 0 0 0 0 0 0 0 0 0 0 0 0 0 0 0 0 0 0 0 0 0 0 0 0 0 0 0 0 0 0 0 0 0 0 0 0 0 0 0 0
0 0 0 0 0 0 0 0 0 0 0 0 0 0 0 0 0 0 0 0 0 0 0 0 0 0 0 0 0 0 0 0 0 0 0 0 0 0 0 0 0 0 0 0 0 0 0 0 0 0 0 0 0 0
0 0 0 0 0 0 0 0 0 0 0 0 0 0 0 0 0 0 0 0 0 0 0 0 0 0 0 0 0 0 0 0 0 0 0 0 0 0 0 0 0 0 0 0 0 0 0 0 0 0 0 0 0 0
0 0 0 1 0 0 0 0 0 0 0 0 0 0 0 0 0 0 0 0 0 0 0 0 0 0 0 0 0 0 0 0 0 0 0 0 0 0 0 0 0 0 0 0 0 0 0 0 0 0 0 0 0 -0
0 0 0 0 0 0 0 0 0 0 0 0 0 0 0 0 0 0 1 0 0 0 0 0 0 0 0 0 0 0 0 0 0 0 0 0 0 0 0 0 0 0 0 0 0 0 0 0 0 0 0 0 0 -0
0 0 0 0 0 0 0 0 0 0 0 0 0 0 0 0 0 0 0 0 0 0 0 0 0 0 0 0 0 0 0 0 0 0 0 0 0 0 0 0 0 0 0 0 0 0 0 0 0 0 0 0 0 0
0 0 0 0 0 0 0 0 0 0 0 0 0 0 0 0 0 0 0 0 0 0 0 0 0 0 0 0 0 0 0 0 0 0 0 0 0 0 0 0 0 0 0 0 0 0 0 0 0 0 0 0 0 0
0 0 0 0 0 0 0 0 0 0 0 0 0 0 0 0 0 0 0 0 0 0 0 0 0 0 0 0 0 0 0 0 0 0 0 0 0 0 0 0 0 0 0 0 0 0 0 0 0 0 0 0 0 0
0 0 0 0 0 0 0 0 0 0 0 0 0 0 0 0 0 0 0 0 0 0 0 0 0 0 0 0 0 0 0 0 0 0 0 0 0 0 0 0 0 0 0 0 0 0 0 0 0 0 0 0 0 0
0 0 0 0 0 0 0 0 0 0 0 0 0 0 0 0 0 0 0 0 0 0 0 0 0 0 0 0 0 0 0 0 0 0 0 0 0 0 0 0 0 0 0 0 0 0 0 0 0 0 0 0 0 0
0 0 0 0 0 0 0 0 0 0 0 0 0 0 0 0 0 0 0 0 0 0 0 0 0 0 0 0 0 0 0 0 0 0 0 0 0 0 0 0 0 0 0 0 0 0 0 0 0 0 0 0 0 0
0 0 0 0 0 0 0 0 0 0 0 0 0 0 0 0 0 0 0 0 0 0 0 0 0 0 0 0 0 0 0 0 0 0 0 0 0 0 0 0 -0 0 0 0 0 0 0 0 0 0 0 0 0 0
0 0 0 0 0 0 0 0 0 0 0 0 0 0 0 0 0 0 0 0 0 0 0 0 0 0 0 0 0 0 0 0 0 0 0 0 0 0 0 0 0 0 0 0 0 0 0 0 0 0 0 0 0 0
0 0 0 0 0 0 0 0 0 0 0 0 0 0 0 0 0 0 0 0 0 0 0 0 0 0 0 0 0 0 0 0 0 0 0 0 0 0 0 0 0 0 0 0 0 0 0 0 0 0 0 0 0 0
-0 0 0 0 0 0 0 0 0 0 0 0 0 0 0 0 0 0 0 0 0 0 0 0 0 0 0 0 0 0 0 0 0 0 0 0 0 0 0 0 0 0 0 0 0 0 0 0 0 0 0 0 0 0
0 0 0 0 0 0 0 0 0 0 0 0 0 0 0 0 0 0 0 0 0 0 0 0 0 0 0 0 0 0 0 0 0 0 0 0 0 0 0 0 0 0 0 0 0 0 0 0 0 0 0 0 0 0
-0 0 0 0 0 0 0 0 0 0 0 0 0 0 0 0 0 0 0 0 0 0 0 0 0 0 0 0 0 0 0 0 0 0 0 0 0 0 0 0 0 0 0 0 0 0 0 0 0 0 0 0 0 0
0 -0 -0 0 0 0 0 0 0 0 0 0 0 0 0 0 0 0 0 0 0 0 0 0 0 0 0 0 0 0 0 0 0 0 0 0 0 0 0 0 0 0 0 0 0 0 0 0 0 0 0 0 0 0
-0 -0 -0 0 0 0 0 0 0 0 0 0 0 0 0 0 0 0 0 0 0 0 0 0 0 0 0 0 0 0 0 0 0 0 0 0 0 0 0 0 0 0 0 0 0 0 0 0 0 0 0 0 0 0
-0 -0 -0 -0 0 0 0 0 0 0 0 0 0 0 0 0 0 0 0 0 0 0 0 0 0 0 0 0 0 0 0 0 0 0 0 0 0 0 0 0 0 0 0 0 0 0 0 0 0 0 0 0 0 0
0 -0 0 -0 0 0 0 0 0 0 0 0 0 0 0 0 0 0 0 0 0 0 0 0 0 0 0 0 0 0 0 0 0 0 0 0 0 0 0 0 0 0 0 0 0 0 0 0 0 0 0 0 0 0
-0 0 0 0 0 0 0 0 0 0 0 0 0 0 0 0 0 0 0 0 0 0 0 0 0 0 0 0 0 0 0 0 0 0 0 0 0 0 0 0 0 0 0 0 0 0 0 0 0 0 0 0 0 0
0 -0 0 0 0 0 0 0 0 0 -0 0 0 0 0 0 0 0 0 0 0 0 0 0 0 0 0 0 0 0 0 0 0 0 0 0 0 0 0 0 0 0 0 0 0 0 0 0 0 0 0 0 0 0
-0 -0 0 -0 0 0 0 0 0 0 0 0 0 0 0 0 0 0 0 0 0 0 0 0 0 0 0 0 0 0 0 0 0 0 0 0 0 0 0 0 0 0 0 0 0 0 0 0 0 0 0 0 0 0
-0 0 0 -0 0 0 0 0 0 0 0 0 0 0 0 0 0 0 0 0 0 0 0 0 0 0 0 0 0 0 0 0 0 0 0 0 0 0 0 0 0 0 0 0 0 0 0 0 0 0 0 0 0 0
-0 0 0 0 0 0 0 0 0 0 0 0 0 0 0 0 0 0 0 0 0 0 0 0 0 0 0 0 0 0 0 0 0 0 0 0 0 0 0 0 0 0 0 0 0 0 0 0 0 0 0 0 0 0
0 -0 0 -0 0 0 0 0 0 0 0 0 0 0 0 0 0 0 0 0 0 0 0 0 0 0 0 0 0 0 0 0 0 0 0 0 0 0 0 0 0 0 0 0 0 0 0 0 0 0 0 0 0 0
-0 -0 0 0 0 0 0 0 0 0 0 0 -0 0 0 0 0 0 0 0 0 0 0 0 0 0 0 0 0 0 0 0 0 0 0 0 0 0 0 0 0 0 0 0 0 0 0 0 0 0 0 0 0 0
-0 -0 0 0 0 -0 0 0 0 0 0 0 -0 -0 0 0 0 0 0 0 0 0 0 0 0 0 0 0 0 0 0 0 0 0 0 0 0 0 0 0 0 0 0 0 0 0 0 0 0 0 0 0 0 0
0 0 -0 0 0 0 0 0 0 0 0 0 0 0 0 0 0 0 0 0 0 0 0 0 0 0 0 0 0 0 0 0 0 0 0 0 0 0 0 0 0 0 0 0 0 0 0 0 0 0 0 0 0 0
0 0 0 0 0 0 0 0 0 0 0 0 0 0 0 0 0 0 0 0 0 0 0 0 0 0 0 0 0 0 0 0 0 0 0 0 0 0 0 0 0 0 0 0 0 0 0 0 0 0 0 0 0 0
0 0 0 0 0 0 0 0 0 0 0 0 0 0 0 0 0 0 0 0 0 0 0 0 0 0 0 0 0 0 0 0 0 0 0 0 0 0 0 0 0 0 0 0 0 0 0 0 0 0 0 0 0 0
Wind_Speed_500mb
64 62 61 70 82 104 105 76 78 87 105 105 93 119 130 119 125 127 124 116 108 62 48 63 60 39 35 49 11 23 14 6 6 7 8 8 7 11 3 6 13 16 16 10 7 7 21 33 18 13 10 13 45 64
53 61 69 62 66 63 72 96 95 85 85 101 104 127 129 129 127 131 117 117 122 74 32 78 64 76 65 55 65 57 9 20 28 7 4 6 3 1 7 7 5 6 14 11 23 17 13 42 27 25 30 64 81 69
57 56 57 71 64 64 67 64 87 98 97 87 106 113 109 114 137 144 141 98 100 84 63 68 72 88 79 69 54 36 23 23 24 14 20 6 6 8 9 13 7 11 28 9 3 34 49 70 80 88 68 74 60 48
68 64 60 58 70 66 67 72 68 75 89 79 87 108 118 106 139 153 139 113 113 48 26 32 67 100 75 88 82 70 45 39 27 29 10 6 6 27 7 8 13 15 22 12 17 53 59 88 77 65 43 31 41 48
63 67 74 66 60 65 68 71 77 71 76 86 81 96 128 87 124 155 150 125 120 85 23 15 25 51 84 95 83 81 62 58 36 19 6 6 10 4 9 3 21 35 19 17 19 46 35 61 53 51 43 51 66 72
66 67 62 73 68 62 63 64 77 85 78 81 81 77 106 102 123 134 63 92 122 112 26 7 20 41 72 82 94 89 73 56 44 20 12 15 19 20 7 9 18 42 76 86 56 65 59 71 69 76 84 80 77 48
60 64 68 61 63 67 67 63 59 82 79 84 90 74 88 119 121 122 46 75 125 110 35 7 6 17 50 54 48 54 62 37 28 17 18 17 18 26 6 29 15 37 51 74 90 89 68 86 72 74 59 69 63 57
53 57 64 64 60 58 67 63 58 66 61 77 84 93 68 82 119 126 106 66 94 102 27 9 4 12 43 19 17 27 31 29 24 16 11 12 19 15 16 28 49 69 82 88 95 86 94 93 90 96 84 84 86 85
52 50 52 57 60 61 57 61 63 51 48 62 71 68 72 53 76 101 110 80 106 49 23 13 20 11 36 14 18 15 17 6 14 7 10 19 9 17 20 27 45 64 57 66 57 54 65 77 81 88 86 82 80 80
49 49 47 49 54 61 64 56 58 49 40 48 41 35 20 31 76 81 45 76 35 22 17 5 39 10 35 14 8 16 12 7 6 11 20 9 22 90 67 81 91 96 89 85 71 65 72 80 86 83 79 71 71 67
43 44 43 45 49 53 59 58 58 45 42 57 31 33 14 82 59 44 20 18 19 11 27 24 48 17 27 10 8 9 7 7 7 8 13 7 11 10 64 113 110 102 99 95 86 86 84 80 79 76 72 67 65 62
41 41 41 42 45 53 56 56 62 57 33 52 20 33 65 21 19 16 14 15 11 15 21 17 22 42 23 19 10 11 7 5 11 18 6 9 11 49 58 63 49 44 54 59 60 62 58 61 61 60 59 60 58 51
42 43 41 43 43 42 49 50 50 73 45 62 21 26 18 15 13 22 21 11 15 22 39 44 29 31 17 13 11 6 10 10 29 3 10 13 24 31 31 33 32 40 35 38 37 44 43 49 50 48 45 46 46 45
42 39 36 39 41 37 38 43 40 51 44 20 15 16 14 10 11 7 21 26 23 42 79 92 26 11 15 8 8 13 6 11 7 7 19 7 51 58 54 26 24 29 28 22 11 11 13 19 17 24 36 36 41 46
23 24 30 31 31 32 30 38 39 46 33 13 12 13 11 5 2 6 39 40 34 86 98 51 24 18 6 9 6 11 7 14 19 17 9 37 72 70 55 37 31 32 26 17 18 14 13 10 14 19 25 31 35 37
20 21 19 16 21 28 28 29 35 29 18 13 10 3 4 3 2 3 35 21 72 94 86 32 10 12 10 10 10 17 20 19 12 8 30 41 46 42 52 47 42 33 29 24 18 14 10 9 17 25 24 22 26 28
15 14 10 8 7 16 25 27 24 16 10 10 6 12 4 3 5 6 35 47 98 83 31 10 16 18 12 9 10 14 15 7 15 23 54 42 35 38 44 45 40 38 26 19 15 14 12 11 15 18 18 16 17 20
9 8 9 3 7 5 14 20 10 6 4 9 0 6 10 11 4 23 24 85 75 59 23 11 18 11 13 18 7 5 22 20 14 16 9 37 40 42 42 44 41 25 18 20 20 16 13 11 11 10 9 8 6 6
8 5 9 10 11 8 5 4 4 3 4 11 16 12 7 3 10 38 62 80 42 33 36 6 11 5 6 7 6 17 23 25 17 14 19 21 40 50 38 46 30 17 18 22 23 18 12 9 8 5 4 5 5 7
9 18 13 10 16 8 2 4 3 4 6 13 17 15 7 9 16 36 44 21 18 18 21 13 9 9 13 19 27 32 31 27 30 23 17 21 38 42 49 32 20 25 27 24 23 16 9 8 6 6 10 13 11 11
11 24 30 30 11 10 10 16 13 12 13 12 19 14 5 19 25 28 30 30 31 15 8 16 28 42 27 22 25 28 25 22 15 12 14 12 26 31 36 23 22 24 22 19 18 14 19 17 15 17 18 19 20 25
24 17 21 16 11 10 16 34 12 22 17 15 23 26 10 8 10 22 18 37 15 15 23 36 49 46 29 26 26 34 28 17 10 5 9 9 9 27 31 23 17 17 20 21 20 23 24 21 24 24 24 25 26 26
16 15 18 34 12 34 12 31 14 25 14 16 17 11 9 7 16 15 9 17 14 35 48 48 42 26 19 26 35 34 32 24 28 30 26 27 25 21 25 23 23 23 22 24 26 31 27 25 27 29 30 27 26 26
24 22 27 22 38 14 25 23 21 16 13 11 11 10 11 11 24 11 10 10 33 50 59 57 50 42 36 43 49 45 39 32 38 36 36 38 41 38 31 28 26 24 25 22 19 21 27 26 27 31 33 31 28 26
20 30 24 20 26 19 18 16 18 16 12 13 12 12 9 22 8 10 7 26 52 58 66 58 52 52 53 47 43 36 33 27 32 44 38 38 41 38 39 36 31 29 30 26 21 13 4 13 18 21 29 32 31 28
19 23 15 16 15 11 10 11 14 16 11 13 12 15 15 7 11 10 8 38 46 57 63 58 59 55 49 52 52 45 36 25 26 37 38 35 30 24 25 26 25 23 21 22 21 15 10 9 10 11 16 22 26 30
15 9 18 25 14 15 8 12 12 8 12 16 10 16 9 12 11 10 31 34 55 48 39 37 38 40 44 47 42 35 29 22 26 32 36 38 30 25 20 15 13 13 10 9 6 3 9 13 20 26 26 24 27 35
15 25 12 37 20 24 7 7 10 13 10 23 9 16 8 9 7 22 26 46 40 37 33 29 30 31 34 37 40 39 29 19 13 17 20 21 31 27 21 19 15 13 9 10 11 12 14 17 18 19 20 22 24 27
16 53 27 12 16 15 20 11 14 22 28 12 5 6 7 11 25 32 37 36 38 43 46 42 38 35 31 36 40 46 44 34 27 33 36 35 25 27 26 23 20 17 16 14 13 12 11 11 9 9 8 8 8 9
31 49 24 24 9 12 20 19 22 32 42 39 29 28 23 20 38 60 47 48 54 57 54 52 51 52 50 46 48 51 51 50 50 44 37 38 37 32 29 26 23 22 19 17 14 12 10 9 9 7 6 7 9 10
34 34 21 20 10 27 27 16 29 34 35 29 26 21 10 4 14 66 71 57 54 56 59 62 65 64 62 59 52 50 55 51 49 48 39 30 28 30 29 29 29 26 22 18 15 16 16 15 17 19 20 20 19 18
32 27 19 12 12 27 21 18 12 15 21 27 32 27 14 8 15 47 76 65 60 61 58 58 62 63 57 49 47 47 48 48 51 52 50 46 45 42 39 38 37 34 30 30 31 31 30 33 34 34 33 33 31 30
13 17 14 12 15 22 26 23 20 7 16 16 23 27 23 12 12 38 46 61 60 58 50 47 49 54 54 53 52 49 49 49 48 46 45 46 45 43 42 41 40 39 37 38 38 40 43 40 39 36 33 31 28 26
Wind_Direction_500mb
255 249 247 245 246 243 251 244 237 252 247 241 245 244 235 232 218 209 213 209 209 219 227 220 214 179 170 187 151 149 109 195 101 153 162 207 171 212 158 176 181 166 168 192 158 191 269 181 109 179 224 293 310 304
264 258 249 249 245 244 246 241 242 234 250 232 240 240 234 230 224 212 210 214 213 218 237 231 233 230 229 228 202 175 199 159 165 111 197 104 178 252 163 244 181 251 196 186 193 214 238 196 230 237 277 297 301 301
265 261 256 249 249 246 241 242 241 237 239 246 236 241 234 236 229 213 208 208 201 211 234 237 225 221 222 222 228 197 210 177 185 174 157 175 194 134 189 231 203 244 193 221 97 248 252 265 267 270 279 287 293 302
261 262 262 259 248 249 246 241 239 243 231 231 237 245 235 230 228 219 206 203 200 195 218 250 236 225 225 222 222 226 224 195 188 185 161 144 170 195 228 248 212 194 154 190 261 271 277 270 267 272 271 278 293 309
260 259 255 260 258 252 248 248 240 238 239 230 231 238 234 244 231 219 208 203 205 188 192 213 224 217 221 220 220 217 221 208 181 166 155 201 195 174 233 279 244 202 208 206 231 239 235 268 279 290 279 292 298 306
263 259 259 253 254 257 254 246 245 240 238 236 230 227 232 241 234 204 204 203 206 197 204 173 206 198 208 216 216 212 210 211 202 187 177 213 188 195 241 245 222 231 226 229 239 261 254 269 286 282 282 286 293 299
268 260 259 259 257 250 254 249 246 241 238 237 230 225 224 228 223 198 197 204 200 190 194 147 207 176 199 195 191 197 201 200 198 190 211 188 187 201 249 256 183 249 248 247 250 254 261 262 268 287 280 284 284 282
272 265 260 256 257 255 251 251 248 238 240 242 236 230 231 227 225 210 207 207 199 181 184 159 98 156 175 150 133 159 166 178 200 213 193 172 173 199 253 252 250 252 253 257 254 253 257 271 272 273 274 278 279 279
266 270 263 254 254 256 256 250 256 237 244 238 236 237 238 243 211 205 200 197 179 181 175 149 155 189 166 133 132 132 147 140 190 210 207 170 186 225 236 234 247 249 244 251 260 255 258 261 268 273 274 275 275 279
262 265 264 259 257 254 252 252 256 257 229 228 208 213 210 199 199 176 156 168 180 203 182 152 152 156 166 140 124 124 162 152 172 223 165 217 247 248 250 263 266 265 263 266 254 254 256 258 265 273 272 277 279 280
258 260 262 265 261 256 248 249 244 243 232 214 202 200 185 171 163 172 159 164 168 170 171 165 177 136 167 135 127 195 162 143 177 218 181 244 263 217 240 246 258 263 259 257 261 267 268 268 271 272 277 283 285 283
256 260 263 268 266 255 247 242 229 234 238 197 208 184 157 198 157 158 162 160 161 174 157 146 151 138 137 131 118 177 137 114 229 143 144 257 247 245 244 241 254 251 253 253 254 257 264 265 267 270 277 283 285 282
265 263 263 265 270 257 240 233 237 216 227 198 217 175 186 211 190 184 153 155 153 166 160 152 142 138 135 145 115 139 136 188 124 164 229 232 251 249 224 219 240 242 242 240 238 251 260 264 262 261 268 273 278 274
280 261 258 263 266 251 234 234 244 216 196 207 210 192 202 197 211 178 176 149 160 144 147 150 135 125 127 147 148 132 100 132 181 220 231 213 213 220 232 215 227 225 216 211 202 230 259 263 270 271 269 271 271 268
270 259 262 263 251 238 233 231 233 236 191 218 227 212 213 217 151 222 197 125 137 148 144 147 99 100 130 138 108 106 131 215 211 224 206 212 218 229 234 222 202 208 220 192 200 198 217 255 286 286 285 287 276 274
268 277 274 270 245 226 232 235 252 243 191 204 244 244 203 160 210 165 179 136 148 149 141 128 129 150 177 141 121 194 163 218 229 201 197 212 234 228 215 209 196 195 206 220 229 234 241 288 313 306 291 286 281 273
267 252 272 292 278 217 210 227 239 199 262 191 247 238 225 257 199 191 159 156 155 149 160 139 144 181 121 160 199 176 201 236 197 210 211 217 209 202 198 194 193 195 198 222 239 246 254 284 307 299 298 311 291 265
268 301 233 289 280 247 214 222 197 263 249 255 181 259 200 270 182 156 160 160 163 170 148 165 127 162 170 165 232 223 229 228 210 233 286 218 187 175 174 181 184 189 201 226 248 263 275 290 290 280 288 317 328 228
302 284 249 231 220 194 232 233 316 300 239 317 303 266 172 22 249 174 160 168 179 181 126 60 84 68 63 38 356 345 356 2 350 330 263 223 190 182 181 177 189 226 243 245 248 256 273 267 254 240 197 174 144 141
239 257 229 190 184 207 1 52 99 37 3 323 300 283 171 125 136 136 122 112 112 56 39 39 33 14 334 327 335 318 329 329 317 312 264 210 190 180 177 187 230 246 247 245 245 253 236 199 168 145 133 133 128 141
125 76 131 146 118 60 76 13 26 9 336 304 324 315 231 121 46 48 41 35 60 36 40 26 339 331 333 339 353 355 348 328 320 279 291 295 226 206 197 222 234 233 239 228 236 217 170 158 144 140 139 138 133 137
66 68 62 63 62 53 64 12 313 335 342 343 346 359 24 40 37 23 38 48 60 30 6 335 335 336 346 12 15 29 17 24 65 125 203 227 228 208 215 221 208 208 203 204 186 167 166 158 155 149 144 137 136 141
47 36 48 27 43 29 354 7 41 10 11 353 354 21 28 50 29 19 73 58 59 359 354 358 0 354 352 22 44 47 37 51 74 82 91 103 106 128 146 149 155 152 151 151 158 167 170 168 169 168 166 160 160 160
42 45 27 30 18 2 344 7 10 4 27 19 8 40 22 6 2 60 74 59 349 353 4 10 13 15 37 38 34 37 25 42 63 68 78 91 99 100 111 115 113 115 129 140 155 173 188 185 188 192 191 189 190 194
64 14 27 1 7 0 20 3 349 6 19 358 26 18 360 355 50 52 42 351 350 353 354 6 16 22 15 12 16 24 23 27 54 65 67 84 97 107 107 103 104 103 104 106 102 93 141 211 221 225 224 223 222 224
65 19 37 354 344 17 350 15 14 2 3 7 20 346 347 52 55 49 8 340 342 342 350 1 0 5 17 18 2 11 16 34 70 77 70 71 80 91 98 108 103 86 91 99 102 91 57 4 330 287 251 238 242 241
46 336 340 6 329 338 20 22 13 22 13 14 352 354 19 57 40 357 333 340 339 353 2 9 10 11 9 9 16 23 31 55 89 80 75 64 57 58 64 73 73 52 37 20 44 274 269 275 278 275 273 265 259 253
39 16 348 322 347 14 47 34 33 17 1 339 353 25 61 37 357 329 324 343 355 12 22 26 29 31 28 26 29 38 54 73 82 75 72 66 54 49 54 53 46 34 17 358 345 325 307 291 283 279 270 261 251 250
4 347 349 345 5 40 30 33 14 11 355 9 58 61 75 57 19 1 10 20 30 35 37 43 48 54 57 50 48 48 49 58 72 65 52 43 43 36 42 41 39 32 23 7 354 346 339 323 313 304 299 288 280 280
350 2 6 0 39 43 21 44 37 53 61 65 86 110 100 79 36 29 38 42 42 41 42 43 46 45 42 47 51 53 51 51 53 52 33 28 25 28 31 36 40 42 40 35 26 21 18 18 17 29 38 28 23 16
351 357 11 20 44 23 23 48 56 56 60 60 64 69 79 110 41 23 32 39 44 46 48 48 49 48 44 45 45 50 52 54 56 58 50 43 43 44 45 48 49 49 51 54 61 67 66 72 69 64 61 57 54 50
3 3 355 1 350 10 29 27 40 52 47 49 41 44 42 53 35 17 18 29 41 45 44 45 47 48 49 50 50 53 54 55 58 62 61 58 58 58 59 62 63 65 68 74 75 75 74 71 70 69 70 70 69 68
338 3 12 0 347 1 356 357 16 28 30 28 32 28 28 45 53 14 21 26 30 33 35 44 50 52 52 51 52 53 56 57 59 58 59 61 60 59 60 63 65 67 68 71 74 72 69 67 68 68 67 67 66 63
Wind_Speed_850mb
64 62 61 70 82 104 105 76 78 87 105 105 93 119 130 119 125 127 124 116 108 62 48 63 60 39 35 49 11 23 14 6 6 7 8 8 7 11 3 6 13 16 16 10 7 7 21 33 18 13 10 13 45 64
53 61 69 62 66 63 72 96 95 85 85 101 104 127 129 129 127 131 117 117 122 74 32 78 64 76 65 55 65 57 9 20 28 7 4 6 3 1 7 7 5 6 14 11 23 17 13 42 27 25 30 64 81 69
57 56 57 71 64 64 67 64 87 98 97 87 106 113 109 114 137 144 141 98 100 84 63 68 72 88 79 69 54 36 23 23 24 14 20 6 6 8 9 13 7 11 28 9 3 34 49 70 80 88 68 74 60 48
68 64 60 58 70 66 67 72 68 75 89 79 87 108 118 106 139 153 139 113 113 48 26 32 67 100 75 88 82 70 45 39 27 29 10 6 6 27 7 8 13 15 22 12 17 53 59 88 77 65 43 31 41 48
63 67 74 66 60 65 68 71 77 71 76 86 81 96 128 87 124 155 150 125 120 85 23 15 25 51 84 95 83 81 62 58 36 19 6 6 10 4 9 3 21 35 19 17 19 46 35 61 53 51 43 51 66 72
66 67 62 73 68 62 63 64 77 85 78 81 81 77 106 102 123 134 63 92 122 112 26 7 20 41 72 82 94 89 73 56 44 20 12 15 19 20 7 9 18 42 76 86 56 65 59 71 69 76 84 80 77 48
60 64 68 61 63 67 67 63 59 82 79 84 90 74 88 119 121 122 46 75 125 110 35 7 6 17 50 54 48 54 62 37 28 17 18 17 18 26 6 29 15 37 51 74 90 89 68 86 72 74 59 69 63 57
53 57 64 64 60 58 67 63 58 66 61 77 84 93 68 82 119 126 106 66 94 102 27 9 4 12 43 19 17 27 31 29 24 16 11 12 19 15 16 28 49 69 82 88 95 86 94 93 90 96 84 84 86 85
52 50 52 57 60 61 57 61 63 51 48 62 71 68 72 53 76 101 110 80 106 49 23 13 20 11 36 14 18 15 17 6 14 7 10 19 9 17 20 27 45 64 57 66 57 54 65 77 81 88 86 82 80 80
49 49 47 49 54 61 64 56 58 49 40 48 41 35 20 31 76 81 45 76 35 22 17 5 39 10 35 14 8 16 12 7 6 11 20 9 22 90 67 81 91 96 89 85 71 65 72 80 86 83 79 71 71 67
43 44 43 45 49 53 59 58 58 45 42 57 31 33 14 82 59 44 20 18 19 11 27 24 48 17 27 10 8 9 7 7 7 8 13 7 11 10 64 113 110 102 99 95 86 86 84 80 79 76 72 67 65 62
41 41 41 42 45 53 56 56 62 57 33 52 20 33 65 21 19 16 14 15 11 15 21 17 22 42 23 19 10 11 7 5 11 18 6 9 11 49 58 63 49 44 54 59 60 62 58 61 61 60 59 60 58 51
42 43 41 43 43 42 49 50 50 73 45 62 21 26 18 15 13 22 21 11 15 22 39 44 29 31 17 13 11 6 10 10 29 3 10 13 24 31 31 33 32 40 35 38 37 44 43 49 50 48 45 46 46 45
42 39 36 39 41 37 38 43 40 51 44 20 15 16 14 10 11 7 21 26 23 42 79 92 26 11 15 8 8 13 6 11 7 7 19 7 51 58 54 26 24 29 28 22 11 11 13 19 17 24 36 36 41 46
23 24 30 31 31 32 30 38 39 46 33 13 12 13 11 5 2 6 39 40 34 86 98 51 24 18 6 9 6 11 7 14 19 17 9 37 72 70 55 37 31 32 26 17 18 14 13 10 14 19 25 31 35 37
20 21 19 16 21 28 28 29 35 29 18 13 10 3 4 3 2 3 35 21 72 94 86 32 10 12 10 10 10 17 20 19 12 8 30 41 46 42 52 47 42 33 29 24 18 14 10 9 17 25 24 22 26 28
15 14 10 8 7 16 25 27 24 16 10 10 6 12 4 3 5 6 35 47 98 83 31 10 16 18 12 9 10 14 15 7 15 23 54 42 35 38 44 45 40 38 26 19 15 14 12 11 15 18 18 16 17 20
9 8 9 3 7 5 14 20 10 6 4 9 0 6 10 11 4 23 24 85 75 59 23 11 18 11 13 18 7 5 22 20 14 16 9 37 40 42 42 44 41 25 18 20 20 16 13 11 11 10 9 8 6 6
8 5 9 10 11 8 5 4 4 3 4 11 16 12 7 3 10 38 62 80 42 33 36 6 11 5 6 7 6 17 23 25 17 14 19 21 40 50 38 46 30 17 18 22 23 18 12 9 8 5 4 5 5 7
9 18 13 10 16 8 2 4 3 4 6 13 17 15 7 9 16 36 44 21 18 18 21 13 9 9 13 19 27 32 31 27 30 23 17 21 38 42 49 32 20 25 27 24 23 16 9 8 6 6 10 13 11 11
11 24 30 30 11 10 10 16 13 12 13 12 19 14 5 19 25 28 30 30 31 15 8 16 28 42 27 22 25 28 25 22 15 12 14 12 26 31 36 23 22 24 22 19 18 14 19 17 15 17 18 19 20 25
24 17 21 16 11 10 16 34 12 22 17 15 23 26 10 8 10 22 18 37 15 15 23 36 49 46 29 26 26 34 28 17 10 5 9 9 9 27 31 23 17 17 20 21 20 23 24 21 24 24 24 25 26 26
16 15 18 34 12 34 12 31 14 25 14 16 17 11 9 7 16 15 9 17 14 35 48 48 42 26 19 26 35 34 32 24 28 30 26 27 25 21 25 23 23 23 22 24 26 31 27 25 27 29 30 27 26 26
24 22 27 22 38 14 25 23 21 16 13 11 11 10 11 11 24 11 10 10 33 50 59 57 50 42 36 43 49 45 39 32 38 36 36 38 41 38 31 28 26 24 25 22 19 21 27 26 27 31 33 31 28 26
20 30 24 20 26 19 18 16 18 16 12 13 12 12 9 22 8 10 7 26 52 58 66 58 52 52 53 47 43 36 33 27 32 44 38 38 41 38 39 36 31 29 30 26 21 13 4 13 18 21 29 32 31 28
19 23 15 16 15 11 10 11 14 16 11 13 12 15 15 7 11 10 8 38 46 57 63 58 59 55 49 52 52 45 36 25 26 37 38 35 30 24 25 26 25 23 21 22 21 15 10 9 10 11 16 22 26 30
15 9 18 25 14 15 8 12 12 8 12 16 10 16 9 12 11 10 31 34 55 48 39 37 38 40 44 47 42 35 29 22 26 32 36 38 30 25 20 15 13 13 10 9 6 3 9 13 20 26 26 24 27 35
15 25 12 37 20 24 7 7 10 13 10 23 9 16 8 9 7 22 26 46 40 37 33 29 30 31 34 37 40 39 29 19 13 17 20 21 31 27 21 19 15 13 9 10 11 12 14 17 18 19 20 22 24 27
16 53 27 12 16 15 20 11 14 22 28 12 5 6 7 11 25 32 37 36 38 43 46 42 38 35 31 36 40 46 44 34 27 33 36 35 25 27 26 23 20 17 16 14 13 12 11 11 9 9 8 8 8 9
31 49 24 24 9 12 20 19 22 32 42 39 29 28 23 20 38 60 47 48 54 57 54 52 51 52 50 46 48 51 51 50 50 44 37 38 37 32 29 26 23 22 19 17 14 12 10 9 9 7 6 7 9 10
34 34 21 20 10 27 27 16 29 34 35 29 26 21 10 4 14 66 71 57 54 56 59 62 65 64 62 59 52 50 55 51 49 48 39 30 28 30 29 29 29 26 22 18 15 16 16 15 17 19 20 20 19 18
32 27 19 12 12 27 21 18 12 15 21 27 32 27 14 8 15 47 76 65 60 61 58 58 62 63 57 49 47 47 48 48 51 52 50 46 45 42 39 38 37 34 30 30 31 31 30 33 34 34 33 33 31 30
13 17 14 12 15 22 26 23 20 7 16 16 23 27 23 12 12 38 46 61 60 58 50 47 49 54 54 53 52 49 49 49 48 46 45 46 45 43 42 41 40 39 37 38 38 40 43 40 39 36 33 31 28 26
Wind_Direction_850mb
255 249 247 245 246 243 251 244 237 252 247 241 245 244 235 232 218 209 213 209 209 219 227 220 214 179 170 187 151 149 109 195 101 153 162 207 171 212 158 176 181 166 168 192 158 191 269 181 109 179 224 293 310 304
264 258 249 249 245 244 246 241 242 234 250 232 240 240 234 230 224 212 210 214 213 218 237 231 233 230 229 228 202 175 199 159 165 111 197 104 178 252 163 244 181 251 196 186 193 214 238 196 230 237 277 297 301 301
265 261 256 249 249 246 241 242 241 237 239 246 236 241 234 236 229 213 208 208 201 211 234 237 225 221 222 222 228 197 210 177 185 174 157 175 194 134 189 231 203 244 193 221 97 248 252 265 267 270 279 287 293 302
261 262 262 259 248 249 246 241 239 243 231 231 237 245 235 230 228 219 206 203 200 195 218 250 236 225 225 222 222 226 224 195 188 185 161 144 170 195 228 248 212 194 154 190 261 271 277 270 267 272 271 278 293 309
260 259 255 260 258 252 248 248 240 238 239 230 231 238 234 244 231 219 208 203 205 188 192 213 224 217 221 220 220 217 221 208 181 166 155 201 195 174 233 279 244 202 208 206 231 239 235 268 279 290 279 292 298 306
263 259 259 253 254 257 254 246 245 240 238 236 230 227 232 241 234 204 204 203 206 197 204 173 206 198 208 216 216 212 210 211 202 187 177 213 188 195 241 245 222 231 226 229 239 261 254 269 286 282 282 286 293 299
268 260 259 259 257 250 254 249 246 241 238 237 230 225 224 228 223 198 197 204 200 190 194 147 207 176 199 195 191 197 201 200 198 190 211 188 187 201 249 256 183 249 248 247 250 254 261 262 268 287 280 284 284 282
272 265 260 256 257 255 251 251 248 238 240 242 236 230 231 227 225 210 207 207 199 181 184 159 98 156 175 150 133 159 166 178 200 213 193 172 173 199 253 252 250 252 253 257 254 253 257 271 272 273 274 278 279 279
266 270 263 254 254 256 256 250 256 237 244 238 236 237 238 243 211 205 200 197 179 181 175 149 155 189 166 133 132 132 147 140 190 210 207 170 186 225 236 234 247 249 244 251 260 255 258 261 268 273 274 275 275 279
262 265 264 259 257 254 252 252 256 257 229 228 208 213 210 199 199 176 156 168 180 203 182 152 152 156 166 140 124 124 162 152 172 223 165 217 247 248 250 263 266 265 263 266 254 254 256 258 265 273 272 277 279 280
258 260 262 265 261 256 248 249 244 243 232 214 202 200 185 171 163 172 159 164 168 170 171 165 177 136 167 135 127 195 162 143 177 218 181 244 263 217 240 246 258 263 259 257 261 267 268 268 271 272 277 283 285 283
256 260 263 268 266 255 247 242 229 234 238 197 208 184 157 198 157 158 162 160 161 174 157 146 151 138 137 131 118 177 137 114 229 143 144 257 247 245 244 241 254 251 253 253 254 257 264 265 267 270 277 283 285 282
265 263 263 265 270 257 240 233 237 216 227 198 217 175 186 211 190 184 153 155 153 166 160 152 142 138 135 145 115 139 136 188 124 164 229 232 251 249 224 219 240 242 242 240 238 251 260 264 262 261 268 273 278 274
280 261 258 263 266 251 234 234 244 216 196 207 210 192 202 197 211 178 176 149 160 144 147 150 135 125 127 147 148 132 100 132 181 220 231 213 213 220 232 215 227 225 216 211 202 230 259 263 270 271 269 271 271 268
270 259 262 263 251 238 233 231 233 236 191 218 227 212 213 217 151 222 197 125 137 148 144 147 99 100 130 138 108 106 131 215 211 224 206 212 218 229 234 222 202 208 220 192 200 198 217 255 286 286 285 287 276 274
268 277 274 270 245 226 232 235 252 243 191 204 244 244 203 160 210 165 179 136 148 149 141 128 129 150 177 141 121 194 163 218 229 201 197 212 234 228 215 209 196 195 206 220 229 234 241 288 313 306 291 286 281 273
267 252 272 292 278 217 210 227 239 199 262 191 247 238 225 257 199 191 159 156 155 149 160 139 144 181 121 160 199 176 201 236 197 210 211 217 209 202 198 194 193 195 198 222 239 246 254 284 307 299 298 311 291 265
268 301 233 289 280 247 214 222 197 263 249 255 181 259 200 270 182 156 160 160 163 170 148 165 127 162 170 165 232 223 229 228 210 233 286 218 187 175 174 181 184 189 201 226 248 263 275 290 290 280 288 317 328 228
302 284 249 231 220 194 232 233 316 300 239 317 303 266 172 22 249 174 160 168 179 181 126 60 84 68 63 38 356 345 356 2 350 330 263 223 190 182 181 177 189 226 243 245 248 256 273 267 254 240 197 174 144 141
239 257 229 190 184 207 1 52 99 37 3 323 300 283 171 125 136 136 122 112 112 56 39 39 33 14 334 327 335 318 329 329 317 312 264 210 190 180 177 187 230 246 247 245 245 253 236 199 168 145 133 133 128 141
125 76 131 146 118 60 76 13 26 9 336 304 324 315 231 121 46 48 41 35 60 36 40 26 339 331 333 339 353 355 348 328 320 279 291 295 226 206 197 222 234 233 239 228 236 217 170 158 144 140 139 138 133 137
66 68 62 63 62 53 64 12 313 335 342 343 346 359 24 40 37 23 38 48 60 30 6 335 335 336 346 12 15 29 17 24 65 125 203 227 228 208 215 221 208 208 203 204 186 167 166 158 155 149 144 137 136 141
47 36 48 27 43 29 354 7 41 10 11 353 354 21 28 50 29 19 73 58 59 359 354 358 0 354 352 22 44 47 37 51 74 82 91 103 106 128 146 149 155 152 151 151 158 167 170 168 169 168 166 160 160 160
42 45 27 30 18 2 344 7 10 4 27 19 8 40 22 6 2 60 74 59 349 353 4 10 13 15 37 38 34 37 25 42 63 68 78 91 99 100 111 115 113 115 129 140 155 173 188 185 188 192 191 189 190 194
64 14 27 1 7 0 20 3 349 6 19 358 26 18 360 355 50 52 42 351 350 353 354 6 16 22 15 12 16 24 23 27 54 65 67 84 97 107 107 103 104 103 104 106 102 93 141 211 221 225 224 223 222 224
65 19 37 354 344 17 350 15 14 2 3 7 20 346 347 52 55 49 8 340 342 342 350 1 0 5 17 18 2 11 16 34 70 77 70 71 80 91 98 108 103 86 91 99 102 91 57 4 330 287 251 238 242 241
46 336 340 6 329 338 20 22 13 22 13 14 352 354 19 57 40 357 333 340 339 353 2 9 10 11 9 9 16 23 31 55 89 80 75 64 57 58 64 73 73 52 37 20 44 274 269 275 278 275 273 265 259 253
39 16 348 322 347 14 47 34 33 17 1 339 353 25 61 37 357 329 324 343 355 12 22 26 29 31 28 26 29 38 54 73 82 75 72 66 54 49 54 53 46 34 17 358 345 325 307 291 283 279 270 261 251 250
4 347 349 345 5 40 30 33 14 11 355 9 58 61 75 57 19 1 10 20 30 35 37 43 48 54 57 50 48 48 49 58 72 65 52 43 43 36 42 41 39 32 23 7 354 346 339 323 313 304 299 288 280 280
350 2 6 0 39 43 21 44 37 53 61 65 86 110 100 79 36 29 38 42 42 41 42 43 46 45 42 47 51 53 51 51 53 52 33 28 25 28 31 36 40 42 40 35 26 21 18 18 17 29 38 28 23 16
351 357 11 20 44 23 23 48 56 56 60 60 64 69 79 110 41 23 32 39 44 46 48 48 49 48 44 45 45 50 52 54 56 58 50 43 43 44 45 48 49 49 51 54 61 67 66 72 69 64 61 57 54 50
3 3 355 1 350 10 29 27 40 52 47 49 41 44 42 53 35 17 18 29 41 45 44 45 47 48 49 50 50 53 54 55 58 62 61 58 58 58 59 62 63 65 68 74 75 75 74 71 70 69 70 70 69 68
338 3 12 0 347 1 356 357 16 28 30 28 32 28 28 45 53 14 21 26 30 33 35 44 50 52 52 51 52 53 56 57 59 58 59 61 60 59 60 63 65 67 68 71 74 72 69 67 68 68 67 67 66 63